When you browse on this site, cookies collect data to enhance your experience and personalize the content and advertising you see.
Visit our Privacy Policy to learn more. By continuing to use the site, you agree to this use of cookies and data.

Meteo pe oră la Dziembowo

Astăzi, 23 Septembrie, Miercuri

Timp Temperatura Precipitaţii Vânt Presiune Umiditate
00:00 +17°C° 0 mm 3 m/s 747 mmHg 71%
01:00 +16°C° 0 mm 2 m/s 747 mmHg 75%
02:00 +16°C° 0 mm 2 m/s 747 mmHg 76%
03:00 +16°C° 0 mm 2 m/s 747 mmHg 77%
04:00 +16°C° 0 mm 2 m/s 746 mmHg 78%
05:00 +16°C° 0 mm 2 m/s 746 mmHg 76%
06:00 +16°C° 0 mm 2 m/s 746 mmHg 73%
07:00 +16°C° 0 mm 2 m/s 747 mmHg 71%
08:00 +18°C° 0 mm 3 m/s 746 mmHg 64%
09:00 +20°C° 0 mm 3 m/s 746 mmHg 58%
10:00 +22°C° 0 mm 3 m/s 746 mmHg 51%
11:00 +24°C° 0 mm 3 m/s 746 mmHg 49%
12:00 +26°C° 0 mm 4 m/s 746 mmHg 46%
13:00 +27°C° 0 mm 4 m/s 746 mmHg 44%
14:00 +26°C° 0 mm 4 m/s 745 mmHg 45%
15:00 +26°C° 0 mm 3 m/s 745 mmHg 47%
16:00 +26°C° 0 mm 3 m/s 745 mmHg 49%
17:00 +25°C° 0 mm 3 m/s 745 mmHg 54%
18:00 +23°C° 0 mm 2 m/s 745 mmHg 60%
19:00 +20°C° 0 mm 2 m/s 745 mmHg 65%
20:00 +20°C° 0.1 mm 2 m/s 745 mmHg 69%
21:00 +19°C° 0.1 mm 2 m/s 745 mmHg 72%
22:00 +18°C° 0.1 mm 2 m/s 745 mmHg 76%
23:00 +18°C° 0.2 mm 2 m/s 745 mmHg 79%

Mâine, 24 Septembrie, Joi

Timp Temperatura Precipitaţii Vânt Presiune Umiditate
00:00 +18°C° 0.2 mm 2 m/s 745 mmHg 82%
01:00 +18°C° 0.2 mm 2 m/s 745 mmHg 85%
02:00 +17°C° 0 mm 2 m/s 745 mmHg 87%
03:00 +17°C° 0 mm 2 m/s 744 mmHg 89%
04:00 +16°C° 0 mm 2 m/s 744 mmHg 92%
05:00 +16°C° 0 mm 2 m/s 744 mmHg 89%
06:00 +17°C° 0 mm 2 m/s 745 mmHg 86%
07:00 +17°C° 0 mm 3 m/s 745 mmHg 84%
08:00 +18°C° 0 mm 3 m/s 745 mmHg 74%
09:00 +20°C° 0 mm 3 m/s 745 mmHg 65%
10:00 +21°C° 0 mm 4 m/s 745 mmHg 56%
11:00 +22°C° 0 mm 4 m/s 745 mmHg 54%
12:00 +23°C° 0 mm 4 m/s 745 mmHg 51%
13:00 +25°C° 0 mm 5 m/s 745 mmHg 49%
14:00 +25°C° 0 mm 4 m/s 745 mmHg 50%
15:00 +25°C° 0 mm 3 m/s 745 mmHg 51%
16:00 +25°C° 0 mm 3 m/s 745 mmHg 52%
17:00 +23°C° 0.5 mm 2 m/s 745 mmHg 61%
18:00 +20°C° 0.5 mm 2 m/s 745 mmHg 71%
19:00 +19°C° 0.5 mm 1 m/s 745 mmHg 80%
20:00 +19°C° 0.1 mm 1 m/s 745 mmHg 82%
21:00 +18°C° 0.1 mm 1 m/s 745 mmHg 84%
22:00 +18°C° 0.1 mm 1 m/s 745 mmHg 86%
23:00 +16°C° 0 mm 1 m/s 745 mmHg 87%

Poimâine, 25 Septembrie, Vineri

Timp Temperatura Precipitaţii Vânt Presiune Umiditate
00:00 +16°C° 0 mm 1 m/s 745 mmHg 88%
01:00 +16°C° 0 mm 1 m/s 744 mmHg 89%
02:00 +16°C° 0 mm 1 m/s 744 mmHg 90%
03:00 +15°C° 0 mm 2 m/s 743 mmHg 90%
04:00 +15°C° 0 mm 2 m/s 743 mmHg 91%
05:00 +16°C° 0 mm 3 m/s 742 mmHg 88%
06:00 +16°C° 0 mm 3 m/s 742 mmHg 86%
07:00 +15°C° 0 mm 4 m/s 741 mmHg 83%
08:00 +18°C° 0 mm 4 m/s 740 mmHg 77%
09:00 +19°C° 0 mm 5 m/s 740 mmHg 71%
10:00 +21°C° 0 mm 6 m/s 739 mmHg 65%
11:00 +20°C° 0.3 mm 6 m/s 739 mmHg 68%
12:00 +20°C° 0.3 mm 5 m/s 738 mmHg 70%
13:00 +20°C° 0.3 mm 5 m/s 738 mmHg 72%
14:00 +19°C° 1.2 mm 5 m/s 738 mmHg 79%
15:00 +17°C° 1.2 mm 4 m/s 737 mmHg 85%
16:00 +15°C° 1.2 mm 4 m/s 737 mmHg 91%
17:00 +14°C° 0.3 mm 4 m/s 737 mmHg 91%
18:00 +14°C° 0.3 mm 4 m/s 738 mmHg 91%
19:00 +13°C° 0.3 mm 4 m/s 738 mmHg 90%
20:00 +13°C° 0.1 mm 4 m/s 738 mmHg 89%
21:00 +13°C° 0.1 mm 4 m/s 739 mmHg 88%
22:00 +13°C° 0.1 mm 4 m/s 739 mmHg 87%
23:00 +12°C° 0 mm 4 m/s 740 mmHg 85%

26 Septembrie, Sâmbătă

Timp Temperatura Precipitaţii Vânt Presiune Umiditate
00:00 +12°C° 0 mm 3 m/s 740 mmHg 83%
01:00 +12°C° 0 mm 3 m/s 740 mmHg 81%
02:00 +12°C° 0 mm 2 m/s 740 mmHg 82%
03:00 +10°C° 0 mm 2 m/s 740 mmHg 83%
04:00 +10°C° 0 mm 2 m/s 741 mmHg 85%
05:00 +10°C° 0 mm 2 m/s 740 mmHg 84%
06:00 +10°C° 0 mm 2 m/s 740 mmHg 83%
07:00 +10°C° 0 mm 3 m/s 740 mmHg 82%
08:00 +11°C° 0 mm 3 m/s 740 mmHg 77%
09:00 +12°C° 0 mm 4 m/s 741 mmHg 73%
10:00 +13°C° 0 mm 4 m/s 741 mmHg 69%
11:00 +13°C° 2 mm 5 m/s 740 mmHg 75%
12:00 +12°C° 2 mm 5 m/s 740 mmHg 82%
13:00 +10°C° 2 mm 6 m/s 740 mmHg 88%
14:00 +10°C° 4 mm 7 m/s 740 mmHg 89%
15:00 +10°C° 4 mm 7 m/s 740 mmHg 90%
16:00 +10°C° 4 mm 8 m/s 740 mmHg 91%
17:00 +10°C° 2 mm 8 m/s 740 mmHg 91%
18:00 +10°C° 2 mm 8 m/s 740 mmHg 91%
19:00 +10°C° 2 mm 8 m/s 740 mmHg 91%
20:00 +10°C° 0.6 mm 8 m/s 740 mmHg 91%
21:00 +10°C° 0.6 mm 7 m/s 740 mmHg 90%
22:00 +10°C° 0.6 mm 7 m/s 740 mmHg 90%
23:00 +10°C° 0.8 mm 7 m/s 739 mmHg 91%

27 Septembrie, Duminică

Timp Temperatura Precipitaţii Vânt Presiune Umiditate
00:00 +10°C° 0.8 mm 7 m/s 739 mmHg 92%
01:00 +10°C° 0.8 mm 7 m/s 738 mmHg 93%
02:00 +11°C° 2.1 mm 7 m/s 738 mmHg 94%
03:00 +11°C° 2.1 mm 7 m/s 738 mmHg 94%
04:00 +12°C° 2.1 mm 7 m/s 738 mmHg 94%
05:00 +12°C° 2.1 mm 7 m/s 738 mmHg 94%
06:00 +12°C° 2.1 mm 7 m/s 738 mmHg 94%
07:00 +12°C° 2.1 mm 7 m/s 738 mmHg 94%
08:00 +11°C° 1.4 mm 7 m/s 739 mmHg 93%
09:00 +11°C° 1.4 mm 8 m/s 739 mmHg 92%
10:00 +10°C° 1.4 mm 9 m/s 739 mmHg 91%
11:00 +10°C° 1.5 mm 9 m/s 739 mmHg 91%
12:00 +9°C° 1.5 mm 8 m/s 740 mmHg 91%
13:00 +9°C° 1.5 mm 8 m/s 740 mmHg 91%
14:00 +9°C° 0.9 mm 8 m/s 740 mmHg 90%
15:00 +7°C° 0.9 mm 8 m/s 740 mmHg 90%
16:00 +7°C° 0.9 mm 9 m/s 740 mmHg 90%
17:00 +7°C° 0.8 mm 8 m/s 740 mmHg 90%
18:00 +7°C° 0.8 mm 8 m/s 740 mmHg 90%
19:00 +7°C° 0.8 mm 8 m/s 740 mmHg 90%
20:00 +8°C° 0.7 mm 7 m/s 740 mmHg 90%
21:00 +8°C° 0.7 mm 7 m/s 740 mmHg 90%
22:00 +8°C° 0.7 mm 7 m/s 740 mmHg 91%
23:00 +8°C° 0.7 mm 7 m/s 740 mmHg 91%

28 Septembrie, Luni

Timp Temperatura Precipitaţii Vânt Presiune Umiditate
00:00 +8°C° 0.7 mm 7 m/s 740 mmHg 92%
01:00 +8°C° 0.7 mm 7 m/s 739 mmHg 93%
02:00 +8°C° 1.6 mm 7 m/s 739 mmHg 93%
03:00 +9°C° 1.6 mm 7 m/s 739 mmHg 93%
04:00 +9°C° 1.6 mm 7 m/s 739 mmHg 94%
05:00 +9°C° 1.2 mm 6 m/s 739 mmHg 94%
06:00 +9°C° 1.2 mm 6 m/s 739 mmHg 94%
07:00 +9°C° 1.2 mm 5 m/s 740 mmHg 94%
08:00 +9°C° 0.4 mm 5 m/s 740 mmHg 93%
09:00 +9°C° 0.4 mm 5 m/s 740 mmHg 91%
10:00 +10°C° 0.4 mm 4 m/s 740 mmHg 90%
11:00 +10°C° 0.2 mm 4 m/s 741 mmHg 90%
12:00 +10°C° 0.2 mm 3 m/s 741 mmHg 89%
13:00 +10°C° 0.2 mm 3 m/s 741 mmHg 88%
14:00 +10°C° 0.2 mm 3 m/s 742 mmHg 89%
15:00 +10°C° 0.2 mm 3 m/s 742 mmHg 89%
16:00 +10°C° 0.2 mm 3 m/s 742 mmHg 90%
17:00 +10°C° 0 mm 2 m/s 742 mmHg 91%
18:00 +9°C° 0 mm 2 m/s 743 mmHg 91%
19:00 +9°C° 0 mm 2 m/s 743 mmHg 92%
20:00 +9°C° 0 mm 2 m/s 743 mmHg 93%
21:00 +10°C° 0 mm 1 m/s 743 mmHg 93%
22:00 +10°C° 0 mm 1 m/s 743 mmHg 93%
23:00 +10°C° 0 mm 1 m/s 743 mmHg 92%
Arată mai mult